This is the latest recevied weather packets stored in our database for station/object WD7CGF. If no packets are shown the sender has not sent any weather packets the latest 10 day(s).
| Time | Temp. | Humidity | Pressure | Rain* | Wind** | Luminosity | Snow |
|---|---|---|---|---|---|---|---|
| 1788126514 | 22.22° C | 46% | 1015.4 hPa | 0 mm | - | - | - |
| 1788125931 | 22.22° C | 45% | 1015.6 hPa | 0 mm | - | - | - |
| 1788125323 | 22.22° C | 46% | 1015.7 hPa | 0 mm | - | - | - |
| 1788124718 | 22.22° C | 45% | 1015.7 hPa | 0 mm | - | - | - |
| 1788124111 | 21.67° C | 46% | 1015.5 hPa | 0 mm | - | - | - |
| 1788123525 | 22.22° C | 44% | 1015.6 hPa | 0 mm | - | - | - |
| 1788122918 | 22.22° C | 49% | 1015.6 hPa | 0 mm | - | - | - |
| 1788122316 | 21.67° C | 47% | 1015.8 hPa | 0 mm | - | - | - |
| 1788121708 | 21.67° C | 48% | 1016 hPa | 0 mm | - | - | - |
| 1788121124 | 21.11° C | 49% | 1016 hPa | 0 mm | - | - | - |
| 1788120517 | 21.11° C | 47% | 1016 hPa | 0 mm | - | - | - |
| 1788119913 | 20.56° C | 48% | 1016 hPa | 0 mm | - | - | - |
| 1788119327 | 20.56° C | 50% | 1016 hPa | 0 mm | - | - | - |
| 1788118722 | 20° C | 52% | 1016.1 hPa | 0 mm | - | - | - |
| 1788118119 | 20° C | 48% | 1016.1 hPa | 0 mm | - | - | - |
| 1788117516 | 20° C | 51% | 1016.1 hPa | 0 mm | - | - | - |
| 1788116929 | 20° C | 51% | 1016.2 hPa | 0 mm | - | - | - |
| 1788116322 | 20° C | 51% | 1016.2 hPa | 0 mm | - | - | - |
| 1788115715 | 19.44° C | 53% | 1016.2 hPa | 0 mm | - | - | - |
| 1788115128 | 18.89° C | 51% | 1016.4 hPa | 0 mm | - | - | - |
| 1788114523 | 18.89° C | 54% | 1016.4 hPa | 0 mm | - | - | - |
| 1788113916 | 18.89° C | 53% | 1016.4 hPa | 0 mm | - | - | - |
| 1788113313 | 18.89° C | 52% | 1016.2 hPa | 0 mm | - | - | - |
| 1788112727 | 18.89° C | 53% | 1016.2 hPa | 0 mm | - | - | - |
| 1788112119 | 18.89° C | 54% | 1016.2 hPa | 0 mm | - | - | - |
* Rain latest hour (hover to see other rain measurements)
** Current wind speed in m/s (hover to see current wind gust speed)